Time,TemperatureF,DewpointF,PressureIn,WindDirection,WindDirectionDegrees,WindSpeedMPH,WindSpeedGustMPH,Humidity,HourlyPrecipIn,Conditions,Clouds,dailyrainin,SolarRadiationWatts/m^2,SoftwareType,DateUTC
2013-03-03 00:12:00,27.5,23.0,30.05,NW,310,6.0,9.0,82,0.00,,,0.00,0,weatherlink.com 1.10,2013-03-03 05:12:00,
2013-03-03 00:27:00,27.4,23.0,30.05,WNW,300,4.0,8.0,82,0.00,,,0.00,0,weatherlink.com 1.10,2013-03-03 05:27:00,
2013-03-03 00:43:00,27.4,23.0,30.05,WNW,293,6.0,8.0,82,0.00,,,0.00,0,weatherlink.com 1.10,2013-03-03 05:43:00,
2013-03-03 00:58:00,27.4,23.0,30.05,NW,308,2.0,6.0,82,0.00,,,0.00,0,weatherlink.com 1.10,2013-03-03 05:58:00,
2013-03-03 01:12:00,27.6,23.0,30.05,NW,312,3.0,6.0,82,0.00,,,0.00,0,weatherlink.com 1.10,2013-03-03 06:12:00,
2013-03-03 01:28:00,28.2,21.0,30.05,North,4,6.0,9.0,75,0.00,,,0.00,0,weatherlink.com 1.10,2013-03-03 06:28:00,
2013-03-03 01:42:00,28.3,21.0,30.05,NNE,14,5.0,8.0,74,0.00,,,0.00,0,weatherlink.com 1.10,2013-03-03 06:42:00,
2013-03-03 01:57:00,28.1,21.0,30.05,NNW,340,4.0,9.0,74,0.00,,,0.00,0,weatherlink.com 1.10,2013-03-03 06:57:00,
2013-03-03 02:13:00,27.9,21.0,30.05,North,10,4.0,8.0,75,0.00,,,0.00,0,weatherlink.com 1.10,2013-03-03 07:13:00,
2013-03-03 02:28:00,27.9,21.0,30.05,North,354,5.0,9.0,76,0.00,,,0.00,0,weatherlink.com 1.10,2013-03-03 07:28:00,
2013-03-03 02:43:00,27.7,21.0,30.04,North,354,1.0,6.0,76,0.00,,,0.00,0,weatherlink.com 1.10,2013-03-03 07:43:00,
2013-03-03 02:58:00,27.7,21.0,30.04,North,4,5.0,7.0,76,0.00,,,0.00,0,weatherlink.com 1.10,2013-03-03 07:58:00,
2013-03-03 03:13:00,27.3,21.0,30.04,North,349,4.0,9.0,76,0.00,,,0.00,0,weatherlink.com 1.10,2013-03-03 08:13:00,
2013-03-03 03:28:00,27.1,21.0,30.04,NNW,345,1.0,6.0,77,0.00,,,0.00,0,weatherlink.com 1.10,2013-03-03 08:28:00,
2013-03-03 03:43:00,27.0,20.0,30.04,NW,322,4.0,6.0,76,0.00,,,0.00,0,weatherlink.com 1.10,2013-03-03 08:43:00,
2013-03-03 03:58:00,26.7,20.0,30.04,NE,37,2.0,7.0,77,0.00,,,0.00,0,weatherlink.com 1.10,2013-03-03 08:58:00,
2013-03-03 04:13:00,26.5,20.0,30.03,NNW,347,4.0,7.0,77,0.00,,,0.00,0,weatherlink.com 1.10,2013-03-03 09:13:00,
2013-03-03 04:29:00,25.7,21.0,30.03,NNW,337,7.0,8.0,81,0.00,,,0.00,0,weatherlink.com 1.10,2013-03-03 09:29:00,
2013-03-03 04:44:00,25.0,21.0,30.04,NNE,12,3.0,8.0,84,0.00,,,0.00,0,weatherlink.com 1.10,2013-03-03 09:44:00,
2013-03-03 04:59:00,25.0,21.0,30.04,NNW,345,4.0,5.0,85,0.00,,,0.00,0,weatherlink.com 1.10,2013-03-03 09:59:00,
2013-03-03 05:14:00,24.9,21.0,30.04,North,4,0.0,4.0,86,0.00,,,0.00,0,weatherlink.com 1.10,2013-03-03 10:14:00,
2013-03-03 05:29:00,24.8,21.0,30.04,NW,313,5.0,5.0,86,0.00,,,0.00,0,weatherlink.com 1.10,2013-03-03 10:29:00,
2013-03-03 05:44:00,24.7,21.0,30.04,WNW,300,2.0,6.0,86,0.00,,,0.00,0,weatherlink.com 1.10,2013-03-03 10:44:00,
2013-03-03 05:59:00,24.5,21.0,30.04,NW,317,2.0,5.0,86,0.00,,,0.00,0,weatherlink.com 1.10,2013-03-03 10:59:00,
2013-03-03 06:14:00,24.5,21.0,30.04,NW,309,0.0,5.0,87,0.00,,,0.00,0,weatherlink.com 1.10,2013-03-03 11:14:00,
2013-03-03 06:30:00,24.4,21.0,30.04,NW,310,0.0,4.0,87,0.00,,,0.00,0,weatherlink.com 1.10,2013-03-03 11:30:00,
2013-03-03 06:45:00,24.4,21.0,30.05,NW,310,3.0,4.0,87,0.00,,,0.00,0,weatherlink.com 1.10,2013-03-03 11:45:00,
2013-03-03 07:00:00,24.4,21.0,30.05,NW,314,2.0,5.0,88,0.00,,,0.00,0,weatherlink.com 1.10,2013-03-03 12:00:00,
2013-03-03 07:15:00,24.5,22.0,30.05,NW,314,1.0,3.0,88,0.00,,,0.00,0,weatherlink.com 1.10,2013-03-03 12:15:00,
2013-03-03 07:30:00,24.4,21.0,30.06,NNW,328,0.0,3.0,87,0.00,,,0.00,14,weatherlink.com 1.10,2013-03-03 12:30:00,
2013-03-03 07:45:00,24.6,22.0,30.06,NNW,328,1.0,3.0,88,0.00,,,0.00,42,weatherlink.com 1.10,2013-03-03 12:45:00,
2013-03-03 08:00:00,24.5,21.0,30.06,NNW,330,2.0,3.0,87,0.00,,,0.00,69,weatherlink.com 1.10,2013-03-03 13:00:00,
2013-03-03 08:15:00,24.6,21.0,30.06,NNW,332,1.0,5.0,86,0.00,,,0.00,84,weatherlink.com 1.10,2013-03-03 13:15:00,
2013-03-03 08:32:00,24.8,21.0,30.07,NNW,332,0.0,4.0,85,0.00,,,0.00,113,weatherlink.com 1.10,2013-03-03 13:32:00,
2013-03-03 08:46:00,25.3,21.0,30.07,NNW,332,2.0,3.0,84,0.00,,,0.00,123,weatherlink.com 1.10,2013-03-03 13:46:00,
2013-03-03 09:02:00,25.4,20.0,30.07,NNW,334,2.0,4.0,81,0.00,,,0.00,146,weatherlink.com 1.10,2013-03-03 14:02:00,
2013-03-03 09:16:00,25.4,20.0,30.07,NNE,31,3.0,5.0,79,0.00,,,0.00,176,weatherlink.com 1.10,2013-03-03 14:16:00,
2013-03-03 09:31:00,25.3,19.0,30.07,ENE,66,3.0,5.0,78,0.00,,,0.00,253,weatherlink.com 1.10,2013-03-03 14:31:00,
2013-03-03 09:46:00,25.8,20.0,30.07,NE,45,2.0,4.0,78,0.00,,,0.00,278,weatherlink.com 1.10,2013-03-03 14:46:00,
2013-03-03 10:02:00,26.5,20.0,30.06,NE,46,0.0,4.0,76,0.00,,,0.00,359,weatherlink.com 1.10,2013-03-03 15:02:00,
2013-03-03 10:17:00,27.2,20.0,30.07,NW,316,4.0,5.0,73,0.00,,,0.00,424,weatherlink.com 1.10,2013-03-03 15:17:00,
2013-03-03 10:32:00,26.8,20.0,30.07,WNW,292,2.0,7.0,75,0.00,,,0.00,274,weatherlink.com 1.10,2013-03-03 15:32:00,
2013-03-03 10:47:00,27.5,20.0,30.06,WSW,243,4.0,6.0,74,0.00,,,0.00,329,weatherlink.com 1.10,2013-03-03 15:47:00,
2013-03-03 11:02:00,27.8,21.0,30.06,NW,305,1.0,6.0,76,0.00,,,0.00,214,weatherlink.com 1.10,2013-03-03 16:02:00,
2013-03-03 11:17:00,28.4,21.0,30.06,North,354,5.0,11.0,73,0.00,,,0.00,773,weatherlink.com 1.10,2013-03-03 16:17:00,
2013-03-03 11:32:00,29.0,20.0,30.06,NNE,26,4.0,11.0,69,0.00,,,0.00,181,weatherlink.com 1.10,2013-03-03 16:32:00,
2013-03-03 11:48:00,29.2,19.0,30.05,NNW,335,7.0,12.0,67,0.00,,,0.00,325,weatherlink.com 1.10,2013-03-03 16:48:00,
2013-03-03 12:02:00,29.5,19.0,30.05,NW,324,3.0,14.0,65,0.00,,,0.00,366,weatherlink.com 1.10,2013-03-03 17:02:00,
2013-03-03 12:17:00,29.9,19.0,30.04,NNW,327,6.0,11.0,64,0.00,,,0.00,385,weatherlink.com 1.10,2013-03-03 17:17:00,
2013-03-03 12:33:00,29.1,21.0,30.04,WNW,295,3.0,15.0,71,0.00,,,0.00,327,weatherlink.com 1.10,2013-03-03 17:33:00,
2013-03-03 12:48:00,29.4,22.0,30.04,WNW,300,7.0,15.0,74,0.00,,,0.00,352,weatherlink.com 1.10,2013-03-03 17:48:00,
2013-03-03 13:03:00,29.3,21.0,30.04,NNW,346,4.0,12.0,71,0.00,,,0.00,197,weatherlink.com 1.10,2013-03-03 18:03:00,
2013-03-03 13:18:00,29.4,19.0,30.03,NNW,332,4.0,14.0,66,0.00,,,0.00,209,weatherlink.com 1.10,2013-03-03 18:18:00,
2013-03-03 13:33:00,29.5,19.0,30.03,NW,326,7.0,15.0,65,0.00,,,0.00,206,weatherlink.com 1.10,2013-03-03 18:33:00,
2013-03-03 13:48:00,30.1,18.0,30.03,NNW,333,5.0,10.0,62,0.00,,,0.00,355,weatherlink.com 1.10,2013-03-03 18:48:00,
2013-03-03 14:03:00,30.5,18.0,30.02,North,354,5.0,12.0,61,0.00,,,0.00,248,weatherlink.com 1.10,2013-03-03 19:03:00,
2013-03-03 14:18:00,30.3,18.0,30.02,NNW,341,10.0,12.0,61,0.00,,,0.00,197,weatherlink.com 1.10,2013-03-03 19:18:00,
2013-03-03 14:34:00,31.0,18.0,30.02,WNW,303,13.0,13.0,58,0.00,,,0.00,919,weatherlink.com 1.10,2013-03-03 19:34:00,
2013-03-03 14:49:00,31.2,17.0,30.01,NW,310,5.0,12.0,56,0.00,,,0.00,809,weatherlink.com 1.10,2013-03-03 19:49:00,
2013-03-03 15:04:00,32.6,17.0,30.01,WNW,290,13.0,14.0,54,0.00,,,0.00,784,weatherlink.com 1.10,2013-03-03 20:04:00,
2013-03-03 15:19:00,33.4,18.0,30.01,NNW,341,7.0,13.0,53,0.00,,,0.00,733,weatherlink.com 1.10,2013-03-03 20:19:00,
2013-03-03 15:34:00,32.7,16.0,30.01,NNW,339,6.0,16.0,51,0.00,,,0.00,622,weatherlink.com 1.10,2013-03-03 20:34:00,
2013-03-03 15:49:00,32.0,17.0,30.00,WNW,298,6.0,13.0,54,0.00,,,0.00,615,weatherlink.com 1.10,2013-03-03 20:49:00,
2013-03-03 16:04:00,32.3,16.0,30.00,WNW,297,13.0,15.0,51,0.00,,,0.00,520,weatherlink.com 1.10,2013-03-03 21:04:00,
2013-03-03 16:20:00,32.5,17.0,30.00,NNW,335,9.0,12.0,54,0.00,,,0.00,541,weatherlink.com 1.10,2013-03-03 21:20:00,
2013-03-03 16:35:00,33.4,18.0,30.00,NNW,347,4.0,10.0,54,0.00,,,0.00,464,weatherlink.com 1.10,2013-03-03 21:35:00,
2013-03-03 16:50:00,31.6,17.0,29.99,North,354,3.0,14.0,55,0.00,,,0.00,367,weatherlink.com 1.10,2013-03-03 21:50:00,
2013-03-03 17:05:00,31.2,17.0,29.99,WNW,301,10.0,13.0,55,0.00,,,0.00,63,weatherlink.com 1.10,2013-03-03 22:05:00,
2013-03-03 17:20:00,30.6,16.0,30.00,WNW,298,8.0,14.0,56,0.00,,,0.00,56,weatherlink.com 1.10,2013-03-03 22:20:00,
2013-03-03 17:35:00,30.9,16.0,30.00,WNW,301,2.0,10.0,55,0.00,,,0.00,181,weatherlink.com 1.10,2013-03-03 22:35:00,
2013-03-03 17:50:00,31.0,16.0,30.01,NNW,341,8.0,12.0,54,0.00,,,0.00,123,weatherlink.com 1.10,2013-03-03 22:50:00,
2013-03-03 18:05:00,30.7,16.0,30.02,NNW,341,6.0,12.0,55,0.00,,,0.00,63,weatherlink.com 1.10,2013-03-03 23:05:00,
2013-03-03 18:21:00,29.8,14.0,30.02,North,354,6.0,11.0,53,0.00,,,0.00,18,weatherlink.com 1.10,2013-03-03 23:21:00,
2013-03-03 18:36:00,29.2,15.0,30.02,WNW,297,6.0,8.0,56,0.00,,,0.00,7,weatherlink.com 1.10,2013-03-03 23:36:00,
2013-03-03 18:51:00,28.6,17.0,30.02,NNW,333,2.0,8.0,61,0.00,,,0.00,0,weatherlink.com 1.10,2013-03-03 23:51:00,
2013-03-03 19:06:00,28.2,16.0,30.03,North,354,3.0,6.0,61,0.00,,,0.00,0,weatherlink.com 1.10,2013-03-04 00:06:00,
2013-03-03 19:21:00,27.8,16.0,30.04,North,350,3.0,8.0,62,0.00,,,0.00,0,weatherlink.com 1.10,2013-03-04 00:21:00,
2013-03-03 19:36:00,27.5,17.0,30.04,NNW,342,2.0,5.0,64,0.00,,,0.00,0,weatherlink.com 1.10,2013-03-04 00:36:00,
2013-03-03 19:51:00,27.1,17.0,30.04,NNW,345,2.0,5.0,65,0.00,,,0.00,0,weatherlink.com 1.10,2013-03-04 00:51:00,
2013-03-03 20:06:00,26.7,17.0,30.05,North,354,0.0,5.0,67,0.00,,,0.00,0,weatherlink.com 1.10,2013-03-04 01:06:00,
2013-03-03 20:21:00,26.4,17.0,30.04,North,354,0.0,3.0,68,0.00,,,0.00,0,weatherlink.com 1.10,2013-03-04 01:21:00,
2013-03-03 20:37:00,26.1,17.0,30.05,North,354,3.0,4.0,68,0.00,,,0.00,0,weatherlink.com 1.10,2013-03-04 01:37:00,
2013-03-03 20:52:00,25.8,17.0,30.05,North,354,2.0,4.0,69,0.00,,,0.00,0,weatherlink.com 1.10,2013-03-04 01:52:00,
2013-03-03 21:07:00,25.4,17.0,30.05,North,354,0.0,3.0,70,0.00,,,0.00,0,weatherlink.com 1.10,2013-03-04 02:07:00,
2013-03-03 21:22:00,25.2,17.0,30.05,North,354,1.0,3.0,71,0.00,,,0.00,0,weatherlink.com 1.10,2013-03-04 02:22:00,
2013-03-03 21:37:00,24.9,17.0,30.05,North,354,0.0,3.0,72,0.00,,,0.00,0,weatherlink.com 1.10,2013-03-04 02:37:00,
2013-03-03 21:52:00,24.7,17.0,30.05,North,354,0.0,3.0,73,0.00,,,0.00,0,weatherlink.com 1.10,2013-03-04 02:52:00,
2013-03-03 22:08:00,24.4,17.0,30.05,North,354,0.0,1.0,74,0.00,,,0.00,0,weatherlink.com 1.10,2013-03-04 03:08:00,
2013-03-03 22:22:00,24.2,17.0,30.05,North,354,0.0,2.0,74,0.00,,,0.00,0,weatherlink.com 1.10,2013-03-04 03:22:00,
2013-03-03 22:37:00,23.9,17.0,30.05,North,354,0.0,2.0,74,0.00,,,0.00,0,weatherlink.com 1.10,2013-03-04 03:37:00,
2013-03-03 22:52:00,23.7,17.0,30.05,North,354,0.0,1.0,76,0.00,,,0.00,0,weatherlink.com 1.10,2013-03-04 03:52:00,
2013-03-03 23:08:00,23.4,18.0,30.05,North,354,0.0,1.0,78,0.00,,,0.00,0,weatherlink.com 1.10,2013-03-04 04:08:00,
2013-03-03 23:23:00,22.5,17.0,30.06,North,354,0.0,0.0,79,0.00,,,0.00,0,weatherlink.com 1.10,2013-03-04 04:23:00,
2013-03-03 23:39:00,22.0,17.0,30.06,North,354,0.0,0.0,82,0.00,,,0.00,0,weatherlink.com 1.10,2013-03-04 04:39:00,
2013-03-03 23:53:00,21.7,17.0,30.06,North,354,0.0,0.0,83,0.00,,,0.00,0,weatherlink.com 1.10,2013-03-04 04:53:00,